Time,TemperatureF,DewpointF,PressureIn,WindDirection,WindDirectionDegrees,WindSpeedMPH,WindSpeedGustMPH,Humidity,HourlyPrecipIn,Conditions,Clouds,dailyrainin,SoftwareType,DateUTC
2016-07-28 00:07:00,66.4,64.0,29.87,West,270,0.0,0.0,92,0.00,,,0.00,pywws,2016-07-28 04:07:00,
2016-07-28 00:17:00,66.0,63.6,29.87,West,270,0.0,0.0,92,0.00,,,0.00,pywws,2016-07-28 04:17:00,
2016-07-28 00:22:00,65.8,63.8,29.87,West,270,0.0,0.0,93,0.00,,,0.00,pywws,2016-07-28 04:22:00,
2016-07-28 00:27:00,65.7,63.6,29.87,West,270,0.0,0.0,93,0.00,,,0.00,pywws,2016-07-28 04:27:00,
2016-07-28 00:37:00,65.5,63.4,29.87,West,270,0.0,0.0,93,0.00,,,0.00,pywws,2016-07-28 04:37:00,
2016-07-28 00:42:00,65.3,63.5,29.87,West,270,0.0,0.0,94,0.00,,,0.00,pywws,2016-07-28 04:42:00,
2016-07-28 00:47:00,65.1,63.3,29.87,West,270,0.0,0.0,94,0.00,,,0.00,pywws,2016-07-28 04:47:00,
2016-07-28 00:57:00,64.8,63.0,29.87,West,270,0.0,0.0,94,0.00,,,0.00,pywws,2016-07-28 04:57:00,
2016-07-28 01:07:00,65.1,63.6,29.86,West,270,0.0,0.0,95,0.00,,,0.00,pywws,2016-07-28 05:07:00,
2016-07-28 01:17:00,64.9,63.5,29.86,West,270,0.0,0.0,95,0.00,,,0.00,pywws,2016-07-28 05:17:00,
2016-07-28 01:22:00,64.6,63.1,29.86,West,270,0.0,0.0,95,0.00,,,0.00,pywws,2016-07-28 05:22:00,
2016-07-28 01:27:00,64.4,62.9,29.87,West,270,0.0,0.0,95,0.00,,,0.00,pywws,2016-07-28 05:27:00,
2016-07-28 01:37:00,64.4,63.2,29.87,West,270,0.0,0.0,96,0.00,,,0.00,pywws,2016-07-28 05:37:00,
2016-07-28 01:42:00,64.4,63.2,29.87,West,270,0.0,0.0,96,0.00,,,0.00,pywws,2016-07-28 05:42:00,
2016-07-28 01:47:00,64.2,62.8,29.86,West,270,0.0,0.0,95,0.00,,,0.00,pywws,2016-07-28 05:47:00,
2016-07-28 01:57:00,64.0,62.6,29.87,West,270,0.0,0.0,95,0.00,,,0.00,pywws,2016-07-28 05:57:00,
2016-07-28 02:07:00,64.0,62.6,29.87,West,270,0.0,0.0,95,0.00,,,0.00,pywws,2016-07-28 06:07:00,
2016-07-28 02:17:00,63.7,62.2,29.87,West,270,0.0,0.0,95,0.00,,,0.00,pywws,2016-07-28 06:17:00,
2016-07-28 02:22:00,63.7,62.2,29.87,West,270,0.0,0.0,95,0.00,,,0.00,pywws,2016-07-28 06:22:00,
2016-07-28 02:27:00,63.9,62.7,29.87,West,270,0.0,0.0,96,0.00,,,0.00,pywws,2016-07-28 06:27:00,
2016-07-28 02:37:00,63.5,62.3,29.87,West,270,0.0,0.0,96,0.00,,,0.00,pywws,2016-07-28 06:37:00,
2016-07-28 02:42:00,63.3,62.2,29.87,West,270,0.0,0.0,96,0.00,,,0.00,pywws,2016-07-28 06:42:00,
2016-07-28 02:47:00,63.3,62.2,29.87,West,270,0.0,0.0,96,0.00,,,0.00,pywws,2016-07-28 06:47:00,
2016-07-28 02:57:00,63.5,62.3,29.87,West,270,0.0,0.0,96,0.00,,,0.00,pywws,2016-07-28 06:57:00,
2016-07-28 03:07:00,63.3,62.2,29.87,West,270,0.0,0.0,96,0.00,,,0.00,pywws,2016-07-28 07:07:00,
2016-07-28 03:12:00,63.1,62.0,29.87,West,270,0.0,0.0,96,0.00,,,0.00,pywws,2016-07-28 07:12:00,
2016-07-28 03:22:00,62.8,61.6,29.87,West,270,0.0,0.0,96,0.00,,,0.00,pywws,2016-07-28 07:22:00,
2016-07-28 03:27:00,62.6,61.4,29.87,West,270,0.0,0.0,96,0.00,,,0.00,pywws,2016-07-28 07:27:00,
2016-07-28 03:37:00,62.6,61.4,29.87,West,270,0.0,0.0,96,0.00,,,0.00,pywws,2016-07-28 07:37:00,
2016-07-28 03:42:00,62.4,61.6,29.87,West,270,0.0,0.0,97,0.00,,,0.00,pywws,2016-07-28 07:42:00,
2016-07-28 03:47:00,62.4,61.6,29.86,West,270,0.0,0.0,97,0.00,,,0.00,pywws,2016-07-28 07:47:00,
2016-07-28 03:57:00,62.6,61.7,29.86,West,270,0.0,0.0,97,0.00,,,0.00,pywws,2016-07-28 07:57:00,
2016-07-28 04:07:00,62.2,61.7,29.86,West,270,0.0,0.0,98,0.00,,,0.00,pywws,2016-07-28 08:07:00,
2016-07-28 04:17:00,62.1,61.5,29.86,West,270,0.0,0.0,98,0.00,,,0.00,pywws,2016-07-28 08:17:00,
2016-07-28 04:22:00,62.1,61.5,29.87,West,270,0.0,0.0,98,0.00,,,0.00,pywws,2016-07-28 08:22:00,
2016-07-28 04:27:00,62.1,61.5,29.87,West,270,0.0,0.0,98,0.00,,,0.00,pywws,2016-07-28 08:27:00,
2016-07-28 04:37:00,62.2,61.7,29.87,West,270,0.0,0.0,98,0.00,,,0.00,pywws,2016-07-28 08:37:00,
2016-07-28 04:42:00,62.2,61.7,29.88,West,270,0.0,0.0,98,0.00,,,0.00,pywws,2016-07-28 08:42:00,
2016-07-28 04:47:00,62.2,61.7,29.88,West,270,0.0,0.0,98,0.00,,,0.00,pywws,2016-07-28 08:47:00,
2016-07-28 04:57:00,62.2,61.7,29.87,West,270,0.0,0.0,98,0.00,,,0.00,pywws,2016-07-28 08:57:00,
2016-07-28 05:07:00,62.2,61.7,29.87,West,270,0.0,0.0,98,0.00,,,0.00,pywws,2016-07-28 09:07:00,
2016-07-28 05:17:00,62.1,61.5,29.87,West,270,0.0,0.0,98,0.00,,,0.00,pywws,2016-07-28 09:17:00,
2016-07-28 05:22:00,61.9,61.3,29.87,West,270,0.0,0.0,98,0.00,,,0.00,pywws,2016-07-28 09:22:00,
2016-07-28 05:27:00,61.9,61.3,29.87,West,270,0.0,0.0,98,0.00,,,0.00,pywws,2016-07-28 09:27:00,
2016-07-28 05:32:00,61.7,61.1,29.87,West,270,0.0,0.0,98,0.00,,,0.00,pywws,2016-07-28 09:32:00,
2016-07-28 05:47:00,61.7,61.1,29.87,West,270,0.0,0.0,98,0.00,,,0.00,pywws,2016-07-28 09:47:00,
2016-07-28 05:57:00,61.7,61.1,29.88,West,270,0.0,0.0,98,0.00,,,0.00,pywws,2016-07-28 09:57:00,
2016-07-28 06:07:00,61.9,61.3,29.88,West,270,0.0,0.0,98,0.00,,,0.00,pywws,2016-07-28 10:07:00,
2016-07-28 06:17:00,62.2,61.7,29.88,West,270,0.0,0.0,98,0.00,,,0.00,pywws,2016-07-28 10:17:00,
2016-07-28 06:22:00,62.6,61.7,29.88,West,270,0.0,0.0,97,0.00,,,0.00,pywws,2016-07-28 10:22:00,
2016-07-28 06:27:00,62.6,61.7,29.88,West,270,0.0,0.0,97,0.00,,,0.00,pywws,2016-07-28 10:27:00,
2016-07-28 06:37:00,63.0,62.1,29.88,West,270,0.0,0.0,97,0.00,,,0.00,pywws,2016-07-28 10:37:00,
2016-07-28 06:42:00,63.1,62.3,29.88,West,270,0.0,0.0,97,0.00,,,0.00,pywws,2016-07-28 10:42:00,
2016-07-28 06:47:00,63.3,62.5,29.88,West,270,0.0,0.0,97,0.00,,,0.00,pywws,2016-07-28 10:47:00,
2016-07-28 06:52:00,63.7,62.8,29.89,West,270,0.0,0.0,97,0.00,,,0.00,pywws,2016-07-28 10:52:00,
2016-07-28 06:57:00,64.2,63.3,29.89,West,270,0.0,0.0,97,0.00,,,0.00,pywws,2016-07-28 10:57:00,
2016-07-28 07:07:00,65.1,64.8,29.88,West,270,0.0,0.0,99,0.00,,,0.00,pywws,2016-07-28 11:07:00,
2016-07-28 07:27:00,68.0,67.1,29.88,West,270,0.0,0.0,97,0.00,,,0.00,pywws,2016-07-28 11:27:00,
2016-07-28 07:32:00,68.7,67.8,29.88,West,270,0.0,0.0,97,0.00,,,0.00,pywws,2016-07-28 11:32:00,
2016-07-28 07:42:00,70.2,67.7,29.88,West,270,0.0,0.0,92,0.00,,,0.00,pywws,2016-07-28 11:42:00,
2016-07-28 07:47:00,70.7,67.3,29.88,West,270,0.0,0.0,89,0.00,,,0.00,pywws,2016-07-28 11:47:00,
2016-07-28 07:52:00,71.8,67.4,29.88,West,270,0.0,0.0,86,0.00,,,0.00,pywws,2016-07-28 11:52:00,
2016-07-28 07:57:00,75.9,70.0,29.88,West,270,0.0,0.0,82,0.00,,,0.00,pywws,2016-07-28 11:57:00,
2016-07-28 08:07:00,82.2,69.7,29.88,West,270,0.0,0.0,66,0.00,,,0.00,pywws,2016-07-28 12:07:00,
2016-07-28 08:12:00,84.7,68.3,29.89,West,270,0.0,0.0,58,0.00,,,0.00,pywws,2016-07-28 12:12:00,
2016-07-28 08:22:00,86.0,67.4,29.88,West,270,0.0,0.0,54,0.00,,,0.00,pywws,2016-07-28 12:22:00,
2016-07-28 08:27:00,88.0,68.7,29.88,West,270,0.0,0.0,53,0.00,,,0.00,pywws,2016-07-28 12:27:00,
2016-07-28 08:32:00,89.6,68.5,29.88,West,270,0.0,0.0,50,0.00,,,0.00,pywws,2016-07-28 12:32:00,
2016-07-28 08:42:00,91.0,68.6,29.88,West,270,0.0,0.0,48,0.00,,,0.00,pywws,2016-07-28 12:42:00,
2016-07-28 08:47:00,91.0,68.0,29.88,West,270,0.0,0.0,47,0.00,,,0.00,pywws,2016-07-28 12:47:00,
2016-07-28 08:52:00,90.9,66.5,29.88,West,270,0.0,0.0,45,0.00,,,0.00,pywws,2016-07-28 12:52:00,
2016-07-28 08:57:00,90.3,66.7,29.88,West,270,0.0,0.0,46,0.00,,,0.00,pywws,2016-07-28 12:57:00,
2016-07-28 09:07:00,90.7,66.4,29.88,West,270,0.0,0.0,45,0.00,,,0.00,pywws,2016-07-28 13:07:00,
2016-07-28 09:17:00,92.1,68.3,29.88,West,270,0.0,0.0,46,0.00,,,0.00,pywws,2016-07-28 13:17:00,
2016-07-28 09:22:00,92.5,68.6,29.88,West,270,0.0,0.0,46,0.00,,,0.00,pywws,2016-07-28 13:22:00,
2016-07-28 09:27:00,92.8,68.3,29.88,West,270,0.0,0.0,45,0.00,,,0.00,pywws,2016-07-28 13:27:00,
2016-07-28 09:37:00,92.5,68.6,29.88,WNW,292,0.0,0.0,46,0.00,,,0.00,pywws,2016-07-28 13:37:00,
2016-07-28 09:42:00,93.4,68.8,29.88,WNW,292,0.0,0.0,45,0.00,,,0.00,pywws,2016-07-28 13:42:00,
2016-07-28 09:47:00,93.6,68.3,29.88,WNW,292,0.0,0.0,44,0.00,,,0.00,pywws,2016-07-28 13:47:00,
2016-07-28 09:57:00,93.0,68.5,29.88,WNW,292,0.0,0.0,45,0.00,,,0.00,pywws,2016-07-28 13:57:00,
2016-07-28 10:07:00,93.6,67.0,29.88,WNW,292,0.0,0.0,42,0.00,,,0.00,pywws,2016-07-28 14:07:00,
2016-07-28 10:12:00,93.6,66.3,29.88,WNW,292,0.7,2.2,41,0.00,,,0.00,pywws,2016-07-28 14:12:00,
2016-07-28 10:22:00,94.1,68.1,29.88,West,270,2.2,3.8,43,0.00,,,0.00,pywws,2016-07-28 14:22:00,
2016-07-28 10:27:00,93.4,66.8,29.88,NW,315,2.2,3.8,42,0.00,,,0.00,pywws,2016-07-28 14:27:00,
2016-07-28 10:37:00,93.9,66.6,29.88,West,270,1.6,3.1,41,0.00,,,0.00,pywws,2016-07-28 14:37:00,
2016-07-28 10:42:00,93.6,67.6,29.88,West,270,0.0,0.0,43,0.00,,,0.00,pywws,2016-07-28 14:42:00,
2016-07-28 10:47:00,94.3,68.3,29.87,WNW,292,0.7,1.6,43,0.00,,,0.00,pywws,2016-07-28 14:47:00,
2016-07-28 10:57:00,94.3,66.2,29.88,West,270,0.0,1.6,40,0.00,,,0.00,pywws,2016-07-28 14:57:00,